"Time","Temp","Dewpoint","Humidity","Pressure","Direction","Speed","Gust","Precip","PrecipRate"
"00:04:57","47.4","32.9","57","29.81","265","6.7","17.3","0.00","0.00"
"00:09:58","47.3","32.8","56.8","29.81","305","6.7","21.6","0.00","0.00"
"00:14:58","47.4","32.7","56.5","29.81","303","8.6","18.4","0.00","0.00"
"00:19:57","47.4","32.9","57","29.78","308","7.3","15","0.00","0.00"
"00:24:58","47.3","32.8","57","29.78","278","7","16.8","0.00","0.00"
"00:29:58","47.4","33.1","57.4","29.81","265","5.7","17.3","0.00","0.00"
"00:34:57","47.3","33","57.3","29.81","286","8.7","23","0.00","0.00"
"00:39:58","47.3","32.8","57","29.81","291","9.8","36","0.00","0.00"
"00:44:57","47.4","32.8","56.8","29.81","306","12.3","35.7","0.00","0.00"
"00:49:57","47.3","32.8","57","29.79","297","10.1","21.9","0.00","0.00"
"00:54:58","47.4","32.9","57.2","29.79","319","10.8","28.8","0.00","0.00"
"00:59:58","47.4","33","57.2","29.81","307","8.7","21.9","0.00","0.00"
"01:04:58","47.3","33.2","57.8","29.81","319","8.7","25.2","0.00","0.00"
"01:09:56","47.4","33.3","57.9","29.81","297","7.8","25.3","0.00","0.00"
"01:14:56","47.3","33.4","58.1","29.81","293","9.6","21.9","0.00","0.00"
"01:19:59","47.5","33.3","57.6","29.81","300","10.2","26.5","0.00","0.00"
"01:24:56","47.5","33.4","57.9","29.81","278","7.1","17.3","0.00","0.00"
"01:29:59","47.5","33.4","57.8","29.83","291","8.2","20.7","0.00","0.00"
"01:34:59","47.6","33.4","57.8","29.83","319","6","19.6","0.00","0.00"
"01:39:56","47.6","33.4","57.8","29.83","283","8","17.3","0.00","0.00"
"01:44:56","47.5","33.6","58.3","29.83","326","4.7","15.6","0.00","0.00"
"01:49:59","47.5","33.6","58.4","29.83","310","8.1","24.2","0.00","0.00"
"01:54:57","47.6","33.5","58.1","29.83","320","9.8","24.2","0.00","0.00"
"01:59:57","47.6","33.7","58.3","29.83","290","6.6","18.4","0.00","0.00"
"02:04:56","47.7","33.7","58.2","29.83","304","7.1","24","0.00","0.00"
"02:09:59","47.7","33.9","58.6","29.83","304","6.9","24.2","0.00","0.00"
"02:14:58","47.7","34.1","59","29.85","307","3.9","16.8","0.00","0.00"
"02:19:57","47.7","33.8","58.5","29.85","295","7.7","23","0.00","0.00"
"02:24:59","47.7","34.1","59","29.85","306","6.9","16.1","0.00","0.00"
"02:29:59","47.6","34","59","29.85","301","7.7","21.6","0.00","0.00"
"02:34:58","47.6","34.1","59.4","29.85","310","9.2","23","0.00","0.00"
"02:39:56","47.5","34.2","59.7","29.85","299","7.9","26.5","0.00","0.00"
"02:44:56","47.5","34.2","59.8","29.85","312","12.2","28.8","0.00","0.00"
"02:49:59","47.5","34.3","60","29.85","311","10.1","30","0.00","0.00"
"02:54:59","47.5","34.3","60","29.85","316","9.7","27.6","0.00","0.00"
"02:59:59","47.5","34.3","60","29.86","310","9.5","25.3","0.00","0.00"
"03:04:56","47.4","34.4","60.5","29.86","284","6.4","20.7","0.00","0.00"
"03:09:58","47.4","34.3","60.2","29.86","301","9.8","23","0.00","0.00"
"03:14:58","47.4","34.5","60.8","29.87","312","7.3","18.4","0.00","0.00"
"03:19:57","47.3","34.5","61","29.87","301","8.8","19.6","0.00","0.00"
"03:24:57","47.2","34.5","61.2","29.87","285","6.1","15.6","0.00","0.00"
"03:29:56","47.2","34.4","61","29.87","296","10","21.9","0.00","0.00"
"03:34:56","47.2","34.4","61","29.87","300","10.3","24.2","0.00","0.00"
"03:39:57","47.2","34.4","61","29.87","275","10.6","25.2","0.00","0.00"
"03:44:57","47.1","34.5","61.5","29.88","300","11.1","23","0.00","0.00"
"03:49:59","46.9","34.9","62.7","29.88","322","9.8","20.4","0.00","0.00"
"03:54:55","46.7","35","63.5","29.88","292","10.1","21.9","0.00","0.00"
"03:59:56","46.5","35","64","29.88","304","7.9","20.7","0.00","0.00"
"04:04:56","46.3","35","64.6","29.88","316","5.6","17.3","0.00","0.00"
"04:09:58","46","34.9","65","29.88","268","3.9","15","0.00","0.00"
"04:14:56","45.7","34.6","65","29.88","280","4.9","14.4","0.00","0.00"
"04:19:59","45.6","34.6","65.2","29.88","295","5","16.1","0.00","0.00"
"04:24:59","45.5","34.7","65.8","29.88","273","4.2","9.6","0.00","0.00"
"04:29:59","45.4","34.7","66","29.88","287","6.2","13.2","0.00","0.00"
"04:34:58","45.2","34.8","66.6","29.88","278","4.8","12.7","0.00","0.00"
"04:39:59","44.9","34.6","67","29.88","293","5.5","18.4","0.00","0.00"
"04:44:58","44.9","34.6","67","29.88","282","6.4","17.3","0.00","0.00"
"04:49:58","44.9","34.6","67","29.87","294","4","10.8","0.00","0.00"
"04:54:58","44.8","34.7","67.7","29.87","303","5.9","16.1","0.00","0.00"
"04:59:58","44.7","34.7","67.7","29.89","311","5.3","12","0.00","0.00"
"05:04:58","44.6","34.4","67.2","29.89","309","5.4","14.4","0.00","0.00"
"05:09:57","44.7","34.4","67","29.89","327","7.1","17.3","0.00","0.00"
"05:14:57","44.6","34.4","67.2","29.89","302","4.6","13.2","0.00","0.00"
"05:19:56","44.5","34.3","67.2","29.89","296","5.2","16.1","0.00","0.00"
"05:24:56","44.5","34.4","67.5","29.89","299","5.1","19.2","0.00","0.00"
"05:29:56","44.7","34.2","66.3","29.89","314","8.6","19.6","0.00","0.00"
"05:34:59","45","34.1","65.5","29.89","310","8.3","16.1","0.00","0.00"
"05:39:56","45.2","34.1","65","29.89","304","7.6","18","0.00","0.00"
"05:44:59","45.3","34.2","65","29.90","299","6.5","16.1","0.00","0.00"
"05:49:59","45.4","34.2","64.8","29.90","307","6.6","16.1","0.00","0.00"
"05:54:59","45.4","34.1","64.5","29.90","313","6.3","16.1","0.00","0.00"
"05:59:58","45.4","34.1","64.3","29.92","300","6.4","25.2","0.00","0.00"
"06:04:58","45.5","34.1","64.3","29.92","299","7.6","25.3","0.00","0.00"
"06:09:57","45.6","34.1","64.2","29.92","315","4.2","8.4","0.00","0.00"
"06:14:57","45.6","34.3","64.5","29.92","297","4.7","20.7","0.00","0.00"
"06:19:56","45.6","34.1","64.1","29.92","305","6.8","16.8","0.00","0.00"
"06:24:57","45.6","34.3","64.6","29.92","310","4.6","10.8","0.00","0.00"
"06:29:57","45.6","34.4","64.8","29.93","331","5.8","19.2","0.00","0.00"
"06:34:56","45.6","34.5","65","29.93","297","5.6","20.7","0.00","0.00"
"06:39:56","45.5","34.5","65.2","29.93","309","6.2","16.1","0.00","0.00"
"06:44:59","45.5","34.4","65","29.94","305","6.2","16.1","0.00","0.00"
"06:49:59","45.5","34.4","65","29.94","311","7.3","15","0.00","0.00"
"06:54:59","45.4","34.4","65.3","29.94","309","6.5","16.1","0.00","0.00"
"06:59:58","45.4","34.4","65.2","29.94","307","5.6","12.7","0.00","0.00"
"07:04:58","45.4","34.7","66.2","29.94","307","4.8","12","0.00","0.00"
"07:09:57","45.3","34.6","66","29.94","301","5.5","15","0.00","0.00"
"07:14:57","45.4","34.7","66","29.95","314","6.5","16.1","0.00","0.00"
"07:19:57","45.4","34.7","66","29.95","332","6","16.8","0.00","0.00"
"07:24:57","45.4","34.8","66.2","29.95","338","8.2","18","0.00","0.00"
"07:29:57","45.5","34.8","66","29.96","336","9.5","22.8","0.00","0.00"
"07:34:56","45.4","34.6","65.8","29.96","344","8.3","16.1","0.00","0.00"
"07:39:56","45.2","34.4","65.8","29.96","343","9.5","21.6","0.00","0.00"
"07:44:59","45","34.3","66","29.97","316","7.8","21.9","0.00","0.00"
"07:49:58","44.9","34.2","66","29.97","335","8","18","0.00","0.00"
"07:54:58","45","34.3","66","29.97","334","4.8","15","0.00","0.00"
"07:59:58","45","34.6","66.6","29.99","350","4.1","10.8","0.00","0.00"
"08:04:57","45.4","34.9","66.6","29.99","351","6.2","16.1","0.00","0.00"
"08:09:56","45.9","35.2","65.9","29.99","16","5.1","15","0.00","0.00"
"08:14:59","46.4","35.2","64.8","30.00","347","7.3","16.1","0.00","0.00"
"08:19:57","46.6","35.3","64.5","30.00","346","6","15","0.00","0.00"
"08:24:57","46.3","34.7","63.7","30.00","348","6.7","16.1","0.00","0.00"
"08:29:58","45.8","34.4","64.2","30.02","342","7.6","25.3","0.00","0.00"
"08:34:59","45.3","34","64.4","30.02","353","7.7","20.7","0.00","0.00"
"08:39:56","45.5","34.1","64.4","30.02","344","8.4","21.9","0.00","0.00"
"08:44:59","45.9","34.3","63.7","30.02","1","5.6","17.3","0.00","0.00"
"08:49:58","46.4","34.3","62.6","30.02","334","7","21.9","0.00","0.00"
"08:54:58","46","33.5","61.5","30.02","329","9.8","24.2","0.00","0.00"
"08:59:56","45.5","33.4","62.5","30.03","10","6.2","22.8","0.00","0.00"
"09:04:57","44.7","32.7","62.4","30.03","351","8.4","23","0.00","0.00"
"09:09:56","44.4","33","63.8","30.03","350","3.3","10.8","0.00","0.00"
"09:14:59","44.4","33","63.8","30.05","333","4.9","15","0.00","0.00"
"09:19:58","44.4","32.8","63.5","30.05","338","5","21.9","0.00","0.00"
"09:24:58","44.5","32.8","63.2","30.05","343","4.7","12","0.00","0.00"
"09:29:57","44.3","32.5","63","30.06","339","6.4","15","0.00","0.00"
"09:34:56","44.1","32.4","63.2","30.06","330","6.4","17.3","0.00","0.00"
"09:36:46","44.5","33.3","64.7","30.06","333","7","17.3","0.00","0.00"
"09:41:37","45.4","33.1","62","30.06","344","14.4","23","0.00","0.00"
"09:49:58","45.2","32.7","61.3","30.06","332","9.9","18","0.00","0.00"
"09:54:59","45.2","32.9","61.9","30.06","348","9.8","19.6","0.00","0.00"
"09:59:56","45.9","33.5","61.8","30.07","343","8.7","21.6","0.00","0.00"
"10:04:58","46.4","33.6","60.9","30.07","346","8.9","21.9","0.00","0.00"
"10:09:57","46.9","33.6","59.8","30.07","337","7.5","17.3","0.00","0.00"
"10:14:58","47.3","34","59.8","30.07","320","5.1","12","0.00","0.00"
"10:19:57","47","33.1","58.2","30.07","337","9.5","19.6","0.00","0.00"
"10:24:58","47","33.4","59.2","30.07","345","10.3","26.5","0.00","0.00"
"10:29:58","47.1","32.9","57.7","30.07","340","11.1","24.2","0.00","0.00"
"10:34:57","46.9","32.9","58","30.07","322","10.5","20.7","0.00","0.00"
"10:39:58","47.3","32.9","57.2","30.07","319","9.9","25.2","0.00","0.00"
"10:44:58","46.8","32.3","56.8","30.07","310","8.7","24.2","0.00","0.00"
"10:49:59","46.3","31.8","56.8","30.07","335","12.6","24","0.00","0.00"
"10:54:56","46.6","32.2","57","30.07","333","12","26.5","0.00","0.00"
"10:59:56","47.9","33.2","56.7","30.08","319","8.3","19.6","0.00","0.00"
"11:04:56","48.3","33.6","56.7","30.08","312","7.9","21.9","0.00","0.00"
"11:09:59","48.4","33.6","56.5","30.08","286","7","17.3","0.00","0.00"
"11:14:59","48.7","33.3","55","30.08","339","11","24","0.00","0.00"
"11:19:57","48.7","33.8","56.2","30.08","333","8.7","24.2","0.00","0.00"
"11:24:57","49.2","33.6","54.6","30.08","320","7.9","18.4","0.00","0.00"
"11:29:57","48.4","33.3","55.9","30.08","307","5.8","19.2","0.00","0.00"
"11:34:57","48.3","32.7","54.6","30.08","322","8.4","19.6","0.00","0.00"
"11:39:59","49","34","56.1","30.08","291","4.7","16.1","0.00","0.00"
"11:44:59","49.5","33.4","53.9","30.08","345","8.2","21.6","0.00","0.00"
"11:49:56","50","34.1","54.2","30.08","296","7.7","25.2","0.00","0.00"
"11:54:58","49.5","32.5","51.9","30.08","329","11.1","24","0.00","0.00"
"11:59:59","49.2","32.1","51.8","30.08","331","10.1","21.6","0.00","0.00"
"12:04:59","49.7","32.3","51.1","30.08","295","8.3","19.6","0.00","0.00"
"12:09:58","49.7","31.8","50.1","30.08","338","13","26.5","0.00","0.00"
"12:14:59","50","33.1","52.1","30.08","280","6.5","19.6","0.00","0.00"
"12:19:56","51","33.2","50.3","30.08","278","7.6","19.2","0.00","0.00"
"12:24:57","50.6","32.9","50.5","30.08","301","7.8","19.6","0.00","0.00"
"12:29:58","50.6","33.3","51.4","30.08","283","7.9","20.7","0.00","0.00"
"12:34:57","51.2","33.7","51.1","30.08","302","7.2","20.7","0.00","0.00"
"12:39:59","51.1","32.1","48","30.08","337","9.9","20.4","0.00","0.00"
"12:44:57","50.4","32.5","50.3","30.09","327","9.8","20.7","0.00","0.00"
"12:49:59","50.5","32.6","50.2","30.09","323","8","17.3","0.00","0.00"
"12:54:57","50.6","32.9","50.5","30.09","305","8.1","21.9","0.00","0.00"
"12:59:58","51.1","33","49.9","30.09","305","8.3","20.7","0.00","0.00"
"13:04:58","51","32.6","49.1","30.08","259","9","16.1","0.00","0.00"
"13:09:57","51.2","32.2","48","30.08","311","9.1","18.4","0.00","0.00"
"13:14:59","51","32.2","48.4","30.08","330","8.7","21.9","0.00","0.00"
"13:19:59","50.9","31.9","47.9","30.08","305","9.5","21.9","0.00","0.00"
"13:24:56","51.3","32.5","48.4","30.08","312","8.1","18.4","0.00","0.00"
"13:29:57","51.9","32.6","47.6","30.08","302","7.4","26.4","0.00","0.00"
"13:34:57","51.6","32.4","47.7","30.08","288","7.1","19.2","0.00","0.00"
"13:39:59","51.6","32","47","30.08","319","7.9","19.6","0.00","0.00"
"13:44:56","51.9","32.1","46.7","30.08","321","6.8","18.4","0.00","0.00"
"13:49:58","52.2","32.6","47.1","30.08","327","7.8","19.2","0.00","0.00"
"13:54:59","52.3","32.1","46.1","30.08","330","7.9","19.6","0.00","0.00"
"13:59:56","52.2","31.9","45.8","30.08","274","6","16.1","0.00","0.00"
"14:04:56","53.8","33.6","46.3","30.07","296","8.1","19.6","0.00","0.00"
"14:09:56","53.2","32.1","44.4","30.07","297","6","19.2","0.00","0.00"
"14:14:58","53.2","32","44.5","30.07","323","5.8","19.6","0.00","0.00"
"14:19:58","53.4","31.4","42.9","30.07","316","5.8","16.8","0.00","0.00"
"14:24:59","53.5","32.2","44.4","30.07","325","6.3","17.3","0.00","0.00"
"14:29:58","53.9","32.6","44.3","30.07","284","2.2","5.8","0.00","0.00"
"14:34:58","54.1","32.5","43.6","30.06","321","5.4","13.2","0.00","0.00"
"14:39:59","53.6","30.4","41","30.06","341","10","18.4","0.00","0.00"
"14:44:58","53.4","31.4","42.9","30.06","324","5.5","13.2","0.00","0.00"
"14:49:56","54.4","32.4","43.1","30.06","286","6.2","12","0.00","0.00"
"14:54:58","54.7","34.1","45.7","30.06","272","5.3","19.6","0.00","0.00"
"14:59:59","54.8","33.4","44.2","30.06","314","5.6","16.1","0.00","0.00"
"15:04:56","55.4","32.7","42.1","30.06","339","6.4","16.1","0.00","0.00"
"15:09:59","55.5","33.6","43.5","30.06","324","4.5","12","0.00","0.00"
"15:14:57","55.9","33.3","42.4","30.06","329","6.7","15","0.00","0.00"
"15:19:58","55.6","32.3","41.1","30.05","300","5.6","12","0.00","0.00"
"15:24:56","55.2","32.5","42","30.05","293","5.7","13.2","0.00","0.00"
"15:29:58","56.1","33.2","41.9","30.05","340","6.8","19.6","0.00","0.00"
"15:34:56","55.3","32.1","41.3","30.05","328","5.6","16.8","0.00","0.00"
"15:39:59","55.6","32.5","41.5","30.05","311","2.8","7.2","0.00","0.00"
"15:44:56","56","33.3","42.2","30.05","280","3.5","12","0.00","0.00"
"15:49:59","55.9","31.8","39.9","30.05","291","5.6","13.2","0.00","0.00"
"15:54:57","56.3","32.6","40.6","30.05","327","4.4","12","0.00","0.00"
"15:59:59","57","34","41.8","30.05","303","2.7","6","0.00","0.00"
"16:04:56","56.3","32.5","40.4","30.05","307","5.1","12","0.00","0.00"
"16:09:59","56.3","32.5","40.4","30.05","276","5.1","14.4","0.00","0.00"
"16:14:57","56.4","33","41.1","30.05","316","6.6","15","0.00","0.00"
"16:19:56","56.2","32.5","40.6","30.04","343","6.3","16.1","0.00","0.00"
"16:24:59","55.8","31.5","39.4","30.04","332","5.5","13.2","0.00","0.00"
"16:29:57","56.2","32.7","40.9","30.04","356","4.8","13.2","0.00","0.00"
"16:34:57","56.5","31.9","39.1","30.04","344","7","15","0.00","0.00"
"16:39:59","56.7","32.3","39.5","30.04","329","5","15","0.00","0.00"
"16:44:57","56.5","32.8","40.6","30.04","290","5.4","13.2","0.00","0.00"
"16:49:57","56.7","32.7","40.2","30.04","278","3.9","12","0.00","0.00"
"16:54:59","57.2","33","39.9","30.04","245","5.5","13.2","0.00","0.00"
"16:59:56","56.8","33.5","41.4","30.04","229","5.6","12","0.00","0.00"
"17:04:57","56.8","33.7","41.7","30.04","258","5.8","11.5","0.00","0.00"
"17:09:56","57","32.1","38.8","30.04","313","5.1","14.4","0.00","0.00"
"17:14:58","56.3","31.2","38.3","30.04","300","6.6","16.8","0.00","0.00"
"17:19:57","56.3","31.6","39","30.04","298","5.6","13.2","0.00","0.00"
"17:24:59","56.3","30.8","37.8","30.04","298","4.9","12","0.00","0.00"
"17:29:57","56.6","32.4","39.8","30.04","233","2.9","8.4","0.00","0.00"
"17:34:58","57","31.2","37.4","30.04","340","6.3","17.3","0.00","0.00"
"17:39:56","56.4","31","37.8","30.04","295","4.8","10.8","0.00","0.00"
"17:44:58","56.4","30.4","36.9","30.05","327","6.4","13.2","0.00","0.00"
"17:49:58","56.1","29.7","36.2","30.05","316","5.3","14.4","0.00","0.00"
"17:54:56","56","30","36.8","30.05","335","6.5","15","0.00","0.00"
"17:59:58","56","29","35.5","30.05","322","5.5","13.2","0.00","0.00"
"18:04:59","56","29.8","36.6","30.05","283","2.9","7.2","0.00","0.00"
"18:09:58","56.1","30.4","37.3","30.05","311","3.2","8.4","0.00","0.00"
"18:14:56","56.2","30.1","36.8","30.05","342","3.5","8.4","0.00","0.00"
"18:19:57","55.8","30.3","37.7","30.05","342","3.9","10.8","0.00","0.00"
"18:24:59","55.2","29.3","37","30.05","332","3.3","8.4","0.00","0.00"
"18:29:57","54.7","30","38.5","30.06","338","2.4","7.2","0.00","0.00"
"18:34:59","54.4","29.8","38.9","30.06","325","2.8","8.4","0.00","0.00"
"18:39:57","54.1","29.3","38.3","30.06","328","3.3","10.8","0.00","0.00"
"18:44:59","54","29.5","38.8","30.06","330","2.3","6","0.00","0.00"
"18:49:59","53.9","29.5","39.1","30.06","9","1.7","5.8","0.00","0.00"
"18:54:57","53.7","29.7","39.7","30.06","28","1.7","6","0.00","0.00"
"18:59:59","53.4","29.4","39.6","30.06","3","1.8","6","0.00","0.00"
"19:04:56","53.3","29.6","40","30.06","347","2.4","4.8","0.00","0.00"
"19:09:59","53.1","29.7","40.5","30.06","336","1.4","4.8","0.00","0.00"
"19:14:59","52.8","29.4","40.5","30.07","330","1.8","4.8","0.00","0.00"
"19:19:57","52.6","29.5","41","30.07","354","1.8","4.8","0.00","0.00"
"19:24:56","52.3","29.5","41.4","30.07","355","1.1","2.4","0.00","0.00"
"19:29:59","52","29.6","42","30.07","355","0.1","1.2","0.00","0.00"
"19:34:59","51.6","29.3","42","30.07","355","1","2.4","0.00","0.00"
"19:39:59","51.3","29.1","42.1","30.07","355","0.2","1.2","0.00","0.00"
"19:44:57","51","29.3","43","30.07","355","0.4","2.4","0.00","0.00"
"19:49:59","50.7","29.2","43.3","30.07","355","0.4","2.4","0.00","0.00"
"19:54:59","50.4","29.1","43.8","30.07","355","1.1","3.6","0.00","0.00"
"19:59:58","50","29","44.1","30.07","355","1","2.4","0.00","0.00"
"20:04:55","49.7","29.3","45.2","30.07","355","0.6","2.4","0.00","0.00"
"20:09:59","49.3","29.7","46.6","30.07","355","0","0","0.00","0.00"
"20:14:58","48.7","30.1","48.3","30.08","355","0.1","1.2","0.00","0.00"
"20:19:58","48.2","30.1","49.3","30.08","355","0","0","0.00","0.00"
"20:24:57","47.7","29.3","48.6","30.08","355","0","0","0.00","0.00"
"20:29:57","47.3","29.2","49.3","30.08","355","0.1","1.2","0.00","0.00"
"20:34:56","46.9","29.3","50.2","30.08","355","0.1","1.2","0.00","0.00"
"20:39:56","46.6","29","50.3","30.08","355","0.1","1.2","0.00","0.00"
"20:44:56","46.2","29.2","51.3","30.08","355","0","0","0.00","0.00"
"20:49:57","45.8","30.1","54","30.08","355","0.1","1.2","0.00","0.00"
"20:54:56","45.3","32.4","60.6","30.08","355","0.1","1.2","0.00","0.00"
"20:59:59","44.5","32","61.1","30.09","355","0","0","0.00","0.00"
"21:04:57","43.9","30.5","59","30.09","355","0","0","0.00","0.00"
"21:09:56","43.8","30.3","59","30.09","355","0","0","0.00","0.00"
"21:14:59","43.8","30.5","59.4","30.10","355","1.2","3.6","0.00","0.00"
"21:19:56","43.4","30.9","61.3","30.10","355","0.1","2.3","0.00","0.00"
"21:24:56","43.1","30.2","60.2","30.10","355","0","0","0.00","0.00"
"21:29:59","42.7","30","60.3","30.10","355","0.9","2.4","0.00","0.00"
"21:34:59","42.6","30.1","61","30.10","355","1.8","2.4","0.00","0.00"
"21:39:58","42.4","30.3","61.9","30.10","355","0.8","2.4","0.00","0.00"
"21:44:57","42.3","29.9","61.3","30.10","355","0","0","0.00","0.00"
"21:49:58","42.1","30.6","63.5","30.10","355","1","2.4","0.00","0.00"
"21:54:56","41.9","30.6","64","30.10","355","1.2","2.4","0.00","0.00"
"21:59:57","41.8","30.7","64.5","30.10","355","0","1.2","0.00","0.00"
"22:04:56","41.6","31.1","66","30.10","355","0","0","0.00","0.00"
"22:09:55","41.2","30.8","66.2","30.10","355","0","0","0.00","0.00"
"22:14:59","40.8","30.7","67","30.11","355","0","0","0.00","0.00"
"22:19:56","40.5","31.1","68.8","30.11","355","0","0","0.00","0.00"
"22:24:59","40.4","31.2","69.7","30.11","355","0","0","0.00","0.00"
"22:29:58","40.3","31.3","69.9","30.11","355","0","0","0.00","0.00"
"22:34:58","40.4","31.4","70","30.11","355","0","0","0.00","0.00"
"22:39:57","40.3","31.5","70.5","30.11","355","0","0","0.00","0.00"
"22:44:56","40","31.5","71.3","30.11","355","0","0","0.00","0.00"
"22:49:56","39.7","31.4","72","30.11","355","0","0","0.00","0.00"
"22:54:59","39.4","31.4","72.7","30.11","355","0","0","0.00","0.00"
"22:59:58","39.2","31.3","73","30.11","355","0","0","0.00","0.00"
"23:04:56","39","31.1","73","30.11","355","0","0","0.00","0.00"
"23:09:56","38.8","31.1","73.6","30.11","355","0","0","0.00","0.00"
"23:14:59","38.5","31","74.3","30.11","355","0","0","0.00","0.00"
"23:19:59","38.2","31.1","75.4","30.11","355","0","0","0.00","0.00"
"23:24:58","37.9","31","76","30.11","355","0","0","0.00","0.00"
"23:29:57","37.7","31","76.7","30.11","355","0","0","0.00","0.00"
"23:34:56","37.5","30.9","77","30.11","355","0","0","0.00","0.00"
"23:39:56","37.3","30.7","77","30.11","355","0","0","0.00","0.00"
"23:44:59","37.1","30.9","78","30.11","355","0","0","0.00","0.00"
"23:49:56","37","30.8","78","30.11","355","0","0","0.00","0.00"
